Weather in Naberezhne

Ukraine / Zaporizhia Region     46°39′29″N   36°13′47″E
temp.,
°C
wind,
m/s
gust,
m/s
humid.,
%
clouds,
%
prec.,
mm/h
press.,
hPa
HPBL,
m
2 march, tue
tue223:00+1n33820 0.0 102958
02:00+1n34800 0.0 1029117
05:000nw34830 0.0 102999
08:00+1wnw35773 0.0 1029227
11:00+4w57610 0.0 1028897
14:00+5wsw796015 0.0 1025921
17:00+4wsw6116897 0.0 1023651
20:00+3wsw8157485 0.0 1022580
3 march, wed
wed323:00+3w9148070 0.0 1020594
02:00+2wnw6118683 0.1 1019474
05:00+2nw71189100 0.1 1020795
08:00+3nnw7117396 0.2 1023942
11:00+4nnw796434 0.0 1024834
14:00+6nw795217 0.0 10251135
17:00+5nw48576 0.0 1025312
20:00+3nw45653 0.0 102792
4 march, thu
thu423:00+2wnw33710 0.0 102750
02:00+1w33730 0.0 102656
05:00+1wsw34760 0.0 102589
08:00+3wsw57690 0.0 1024318
11:00+6sw810670 0.0 1022840
14:00+6sw811660 0.0 1020714
17:00+5sw711660 0.0 1018354
20:00+5sw713781 0.0 1017339
5 march, fri
fri523:00+4sw8148168 0.0 1016456
02:00+3sw7138443 0.0 1016480
05:00+3sw712850 0.0 1015420
08:00+5sw711834 0.0 1015486
11:00+6sw7107473 0.0 1015441
14:00+7ssw7107082 0.0 1014455
17:00+6ssw7127894 0.0 1013301
20:00+5ssw8138496 0.0 1013256
6 march, sat
sat623:00+5sw6118930 0.0 1012226
02:00+5sw599234 0.0 1012254
05:00+5wsw3496100 0.0 101297
08:00+6nw2390100 0.0 1013180
11:00+5n5788100 0.1 1014321
14:00+2n71095100 1.8 1015618
17:00+3n5862100 0.2 10161038
20:00+2nnw61060100 0.2 1020814